カタログに戻る

FENGYUN 1C DEB

LostSSO
NORAD 31421·DEBRIS·🇨🇳 China

打ち上げ May 10, 1999 から Taiyuan Satellite Launch Center

Loading…

次のパス (今後24時間)

TLE

古いSource: Space-Track

元期: Sep 25, 2015, 22:31 UTC

1 31421U 99025BTH 15268.93844154  .00000043  00000-0  40662-4 0  9995
2 31421  98.9667 322.4350 0063074 179.0666 181.0639 14.20221517436491

AllMySatでFENGYUN 1C DEBをリアルタイム追跡

Download on the App Store